Location: L�gaud
(45.7115°N, 1.7775°E)
Time: 16:10:32
(UTC+00:00)

OBJECT-B - Pass Details

Date: 03 March 2021
Orbit: 414 x 427 km, 97.0° (Epoch: 09 April)

Event Time Altitude Azimuth Distance (km) Brightness Sun altitude
Exits shadow 19:37:55 33° 6° (N) 743 2.0 -20.8°
Drops below altitude 10° 19:39:51 10° 354° (N) 1,514 3.8 -21.2°
Sets 19:41:52 0° 351° (N) 2,381 4.9 -21.5°
